Torna al catalogo

COSMOS 2587

AttivoNavigazionePO
NORAD 63290·PAYLOAD·🇷🇺 Russia

Lanciato Mar 16, 2025 da Plesetsk Cosmodrome

Loading…

Prossimi Passaggi (prossime 24 ore)

TLE

AggiornatoSource: Space-Track

Epoca: Sep 14, 2026, 04:42 UTC

1 63290U 25054C   26257.19606127  .00000006  00000-0 -30315-4 0  9993
2 63290  82.5015  23.3219 0015241 174.8202 185.3038 12.42895752 67916

Traccia COSMOS 2587 in tempo reale con AllMySat

Download on the App Store